date,time,water_lv
2017-11-01,00:00:00,93.86
2017-11-01,00:10:00,93.86
2017-11-01,00:20:00,93.86
2017-11-01,00:30:00,93.86
2017-11-01,00:40:00,93.86
2017-11-01,00:50:00,93.86
2017-11-01,01:00:00,93.86
2017-11-01,01:10:00,93.86
2017-11-01,01:20:00,93.86
2017-11-01,01:30:00,93.86
2017-11-01,01:40:00,93.87
2017-11-01,01:50:00,93.87
2017-11-01,02:00:00,93.87
2017-11-01,02:10:00,93.87
2017-11-01,02:20:00,93.87
2017-11-01,02:30:00,93.87
2017-11-01,02:40:00,93.87
2017-11-01,02:50:00,93.87
2017-11-01,03:00:00,93.87
2017-11-01,03:10:00,93.87
2017-11-01,03:20:00,93.87
2017-11-01,03:30:00,93.86
2017-11-01,03:40:00,93.87
2017-11-01,03:50:00,93.87
2017-11-01,04:00:00,93.86
2017-11-01,04:10:00,93.87
2017-11-01,04:20:00,93.87
2017-11-01,04:30:00,93.87
2017-11-01,04:40:00,93.87
2017-11-01,04:50:00,93.87
2017-11-01,05:00:00,93.87
2017-11-01,05:10:00,93.87
2017-11-01,05:20:00,93.87
2017-11-01,05:30:00,93.87
2017-11-01,05:40:00,93.87
2017-11-01,05:50:00,93.86
2017-11-01,06:00:00,93.87
2017-11-01,06:10:00,93.87
2017-11-01,06:20:00,93.87
2017-11-01,06:30:00,93.87
2017-11-01,06:40:00,93.87
2017-11-01,06:50:00,93.87
2017-11-01,07:00:00,93.87
2017-11-01,07:10:00,93.87
2017-11-01,07:20:00,93.87
2017-11-01,07:30:00,93.87
2017-11-01,07:40:00,93.87
2017-11-01,07:50:00,93.86
2017-11-01,08:00:00,93.86
2017-11-01,08:10:00,93.86
2017-11-01,08:20:00,93.86
2017-11-01,08:30:00,93.86
2017-11-01,08:40:00,93.86
2017-11-01,08:50:00,93.86
2017-11-01,09:00:00,93.85
2017-11-01,09:10:00,93.85
2017-11-01,09:20:00,93.85
2017-11-01,09:30:00,93.84
2017-11-01,09:40:00,93.84
2017-11-01,09:50:00,93.84
2017-11-01,10:00:00,93.85
2017-11-01,10:10:00,94.18
2017-11-01,10:20:00,93.85
2017-11-01,10:30:00,93.84
2017-11-01,10:40:00,93.86
2017-11-01,10:50:00,93.86
2017-11-01,11:00:00,94.16
2017-11-01,11:10:00,93.86
2017-11-01,11:20:00,93.86
2017-11-01,11:30:00,93.86
2017-11-01,11:40:00,93.87
2017-11-01,11:50:00,93.85
2017-11-01,12:00:00,93.86
2017-11-01,12:10:00,93.86
2017-11-01,12:20:00,93.87
2017-11-01,12:30:00,93.87
2017-11-01,12:40:00,93.86
2017-11-01,12:50:00,93.86
2017-11-01,13:00:00,93.85
2017-11-01,13:10:00,93.86
2017-11-01,13:20:00,93.86
2017-11-01,13:30:00,93.86
2017-11-01,13:40:00,93.86
2017-11-01,13:50:00,93.86
2017-11-01,14:00:00,93.86
2017-11-01,14:10:00,93.86
2017-11-01,14:20:00,93.85
2017-11-01,14:30:00,93.86
2017-11-01,14:40:00,93.85
2017-11-01,14:50:00,93.86
2017-11-01,15:00:00,94.17
2017-11-01,15:10:00,94.18
2017-11-01,15:20:00,93.86
2017-11-01,15:30:00,93.86
2017-11-01,15:40:00,93.86
2017-11-01,15:50:00,94.18
2017-11-01,16:00:00,94.19
2017-11-01,16:10:00,93.84
2017-11-01,16:20:00,94.19
2017-11-01,16:30:00,94.19
2017-11-01,16:40:00,93.84
2017-11-01,16:50:00,93.84
2017-11-01,17:00:00,93.85
2017-11-01,17:10:00,93.85
2017-11-01,17:20:00,93.85
2017-11-01,17:30:00,93.85
2017-11-01,17:40:00,93.85
2017-11-01,17:50:00,93.85
2017-11-01,18:00:00,93.85
2017-11-01,18:10:00,93.85
2017-11-01,18:20:00,93.85
2017-11-01,18:30:00,93.85
2017-11-01,18:40:00,93.85
2017-11-01,18:50:00,93.85
2017-11-01,19:00:00,93.85
2017-11-01,19:10:00,93.85
2017-11-01,19:20:00,93.85
2017-11-01,19:30:00,93.85
2017-11-01,19:40:00,93.85
2017-11-01,19:50:00,93.85
2017-11-01,20:00:00,93.85
2017-11-01,20:10:00,93.85
2017-11-01,20:20:00,93.85
2017-11-01,20:30:00,93.85
2017-11-01,20:40:00,93.85
2017-11-01,20:50:00,93.85
2017-11-01,21:00:00,93.85
2017-11-01,21:10:00,93.85
2017-11-01,21:20:00,93.85
2017-11-01,21:30:00,93.85
2017-11-01,21:40:00,93.85
2017-11-01,21:50:00,93.85
2017-11-01,22:00:00,93.85
2017-11-01,22:10:00,93.85
2017-11-01,22:20:00,93.86
2017-11-01,22:30:00,93.85
2017-11-01,22:40:00,93.86
2017-11-01,22:50:00,93.85
2017-11-01,23:00:00,93.86
2017-11-01,23:10:00,93.85
2017-11-01,23:20:00,93.85
2017-11-01,23:30:00,93.86
2017-11-01,23:40:00,93.86
2017-11-01,23:50:00,93.86
2017-11-02,00:00:00,93.85
2017-11-02,00:10:00,93.86
2017-11-02,00:20:00,93.86
2017-11-02,00:30:00,93.86
2017-11-02,00:40:00,93.86
2017-11-02,00:50:00,93.86
2017-11-02,01:00:00,93.86
2017-11-02,01:10:00,93.86
2017-11-02,01:20:00,93.86
2017-11-02,01:30:00,93.86
2017-11-02,01:40:00,93.86
2017-11-02,01:50:00,93.86
2017-11-02,02:00:00,93.86
2017-11-02,02:10:00,94.46
2017-11-02,02:20:00,93.86
2017-11-02,02:30:00,93.86
2017-11-02,02:40:00,93.86
2017-11-02,02:50:00,93.86
2017-11-02,03:00:00,93.86
2017-11-02,03:10:00,94.27
2017-11-02,03:20:00,93.87
2017-11-02,03:30:00,93.87
2017-11-02,03:40:00,93.87
2017-11-02,03:50:00,93.87
2017-11-02,04:00:00,93.87
2017-11-02,04:10:00,94.29
2017-11-02,04:20:00,93.87
2017-11-02,04:30:00,93.87
2017-11-02,04:40:00,93.87
2017-11-02,04:50:00,93.87
2017-11-02,05:00:00,93.87
2017-11-02,05:10:00,93.86
2017-11-02,05:20:00,94.28
2017-11-02,05:30:00,93.86
2017-11-02,05:40:00,93.86
2017-11-02,05:50:00,93.86
2017-11-02,06:00:00,93.86
2017-11-02,06:10:00,94.28
2017-11-02,06:20:00,93.94
2017-11-02,06:30:00,94.27
2017-11-02,06:40:00,93.86
2017-11-02,06:50:00,94.27
2017-11-02,07:00:00,94.27
2017-11-02,07:10:00,94.27
2017-11-02,07:20:00,94.27
2017-11-02,07:30:00,93.86
2017-11-02,07:40:00,94.27
2017-11-02,07:50:00,94.27
2017-11-02,08:00:00,94.29
2017-11-02,08:10:00,93.85
2017-11-02,08:20:00,93.85
2017-11-02,08:30:00,93.84
2017-11-02,08:40:00,94.27
2017-11-02,08:50:00,93.84
2017-11-02,09:00:00,93.85
2017-11-02,09:10:00,93.85
2017-11-02,09:20:00,93.85
2017-11-02,09:30:00,93.85
2017-11-02,09:40:00,93.85
2017-11-02,09:50:00,93.84
2017-11-02,10:00:00,93.85
2017-11-02,10:10:00,93.85
2017-11-02,10:20:00,93.85
2017-11-02,10:30:00,93.85
2017-11-02,10:40:00,93.85
2017-11-02,10:50:00,93.86
2017-11-02,11:00:00,93.86
2017-11-02,11:10:00,93.85
2017-11-02,11:20:00,93.87
2017-11-02,11:30:00,93.87
2017-11-02,11:40:00,93.87
2017-11-02,11:50:00,93.87
2017-11-02,12:00:00,93.87
2017-11-02,12:10:00,94.15
2017-11-02,12:20:00,93.86
2017-11-02,12:30:00,94.15
2017-11-02,12:40:00,94.17
2017-11-02,12:50:00,94.15
2017-11-02,13:00:00,94.15
2017-11-02,13:10:00,94.15
2017-11-02,13:20:00,94.15
2017-11-02,13:30:00,94.16
2017-11-02,13:40:00,93.85
2017-11-02,13:50:00,94.15
2017-11-02,14:00:00,93.87
2017-11-02,14:10:00,94.15
2017-11-02,14:20:00,94.14
2017-11-02,14:30:00,93.88
2017-11-02,14:40:00,94.16
2017-11-02,14:50:00,94.16
2017-11-02,15:00:00,94.15
2017-11-02,15:10:00,94.14
2017-11-02,15:20:00,94.15
2017-11-02,15:30:00,94.33
2017-11-02,15:40:00,94.15
2017-11-02,15:50:00,94.15
2017-11-02,16:00:00,94.15
2017-11-02,16:10:00,93.87
2017-11-02,16:20:00,94.74
2017-11-02,16:30:00,94.14
2017-11-02,16:40:00,94.49
2017-11-02,16:50:00,93.87
2017-11-02,17:00:00,94.49
2017-11-02,17:10:00,94.47
2017-11-02,17:20:00,94.48
2017-11-02,17:30:00,94.47
2017-11-02,17:40:00,94.48
2017-11-02,17:50:00,94.49
2017-11-02,18:00:00,94.49
2017-11-02,18:10:00,94.49
2017-11-02,18:20:00,94.49
2017-11-02,18:30:00,94.17
2017-11-02,18:40:00,93.87
2017-11-02,18:50:00,93.87
2017-11-02,19:00:00,93.87
2017-11-02,19:10:00,93.87
2017-11-02,19:20:00,93.87
2017-11-02,19:30:00,93.87
2017-11-02,19:40:00,94.18
2017-11-02,19:50:00,93.87
2017-11-02,20:00:00,94.18
2017-11-02,20:10:00,93.88
2017-11-02,20:20:00,93.88
2017-11-02,20:30:00,93.88
2017-11-02,20:40:00,93.88
2017-11-02,20:50:00,93.88
2017-11-02,21:00:00,93.88
2017-11-02,21:10:00,93.88
2017-11-02,21:20:00,93.87
2017-11-02,21:30:00,93.87
2017-11-02,21:40:00,93.88
2017-11-02,21:50:00,93.88
2017-11-02,22:00:00,93.88
2017-11-02,22:10:00,93.88
2017-11-02,22:20:00,93.88
2017-11-02,22:30:00,93.88
2017-11-02,22:40:00,93.88
2017-11-02,22:50:00,93.88
2017-11-02,23:00:00,93.88
2017-11-02,23:10:00,93.88
2017-11-02,23:20:00,93.88
2017-11-02,23:30:00,94.17
2017-11-02,23:40:00,93.89
2017-11-02,23:50:00,94.17
2017-11-03,00:00:00,94.17
2017-11-03,00:10:00,94.17
2017-11-03,00:20:00,94.17
2017-11-03,00:30:00,94.17
2017-11-03,00:40:00,94.16
2017-11-03,00:50:00,93.9
2017-11-03,01:00:00,93.9
2017-11-03,01:10:00,93.9
2017-11-03,01:20:00,93.9
2017-11-03,01:30:00,93.91
2017-11-03,01:40:00,93.91
2017-11-03,01:50:00,93.91
2017-11-03,02:00:00,93.92
2017-11-03,02:10:00,93.92
2017-11-03,02:20:00,93.91
2017-11-03,02:30:00,93.92
2017-11-03,02:40:00,93.92
2017-11-03,02:50:00,93.93
2017-11-03,03:00:00,93.92
2017-11-03,03:10:00,93.91
2017-11-03,03:20:00,93.92
2017-11-03,03:30:00,93.94
2017-11-03,03:40:00,93.94
2017-11-03,03:50:00,93.94
2017-11-03,04:00:00,93.92
2017-11-03,04:10:00,93.93
2017-11-03,04:20:00,93.94
2017-11-03,04:30:00,93.93
2017-11-03,04:40:00,93.94
2017-11-03,04:50:00,93.94
2017-11-03,05:00:00,93.94
2017-11-03,05:10:00,93.91
2017-11-03,05:20:00,93.92
2017-11-03,05:30:00,93.94
2017-11-03,05:40:00,93.94
2017-11-03,05:50:00,93.94
2017-11-03,06:00:00,93.94
2017-11-03,06:10:00,93.95
2017-11-03,06:20:00,93.94
2017-11-03,06:30:00,93.95
2017-11-03,06:40:00,93.97
2017-11-03,06:50:00,93.93
2017-11-03,07:00:00,93.96
2017-11-03,07:10:00,93.97
2017-11-03,07:20:00,93.92
2017-11-03,07:30:00,93.91
2017-11-03,07:40:00,93.89
2017-11-03,07:50:00,93.89
2017-11-03,08:00:00,93.87
2017-11-03,08:10:00,93.88
2017-11-03,08:20:00,93.87
2017-11-03,08:30:00,93.87
2017-11-03,08:40:00,93.86
2017-11-03,08:50:00,93.87
2017-11-03,09:00:00,93.86
2017-11-03,09:10:00,93.86
2017-11-03,09:20:00,93.86
2017-11-03,09:30:00,93.86
2017-11-03,09:40:00,93.88
2017-11-03,09:50:00,93.88
2017-11-03,10:00:00,93.87
2017-11-03,10:10:00,93.87
2017-11-03,10:20:00,93.88
2017-11-03,10:30:00,93.88
2017-11-03,10:40:00,93.87
2017-11-03,10:50:00,93.87
2017-11-03,11:00:00,93.87
2017-11-03,11:10:00,93.86
2017-11-03,11:20:00,93.87
2017-11-03,11:30:00,93.87
2017-11-03,11:40:00,93.86
2017-11-03,11:50:00,93.88
2017-11-03,12:00:00,93.88
2017-11-03,12:10:00,93.87
2017-11-03,12:20:00,93.87
2017-11-03,12:30:00,93.88
2017-11-03,12:40:00,93.87
2017-11-03,12:50:00,93.87
2017-11-03,13:00:00,93.87
2017-11-03,13:10:00,93.88
2017-11-03,13:20:00,93.89
2017-11-03,13:30:00,93.88
2017-11-03,13:40:00,93.87
2017-11-03,13:50:00,93.87
2017-11-03,14:00:00,93.86
2017-11-03,14:10:00,93.86
2017-11-03,14:20:00,93.88
2017-11-03,14:30:00,93.88
2017-11-03,14:40:00,93.87
2017-11-03,14:50:00,93.88
2017-11-03,15:00:00,93.86
2017-11-03,15:10:00,93.87
2017-11-03,15:20:00,93.86
2017-11-03,15:30:00,93.85
2017-11-03,15:40:00,93.88
2017-11-03,15:50:00,93.88
2017-11-03,16:00:00,93.86
2017-11-03,16:10:00,93.87
2017-11-03,16:20:00,93.86
2017-11-03,16:30:00,93.87
2017-11-03,16:40:00,93.88
2017-11-03,16:50:00,93.88
2017-11-03,17:00:00,93.86
2017-11-03,17:10:00,93.87
2017-11-03,17:20:00,93.87
2017-11-03,17:30:00,93.87
2017-11-03,17:40:00,93.87
2017-11-03,17:50:00,93.87
2017-11-03,18:00:00,93.86
2017-11-03,18:10:00,93.86
2017-11-03,18:20:00,93.86
2017-11-03,18:30:00,93.86
2017-11-03,18:40:00,93.86
2017-11-03,18:50:00,93.85
2017-11-03,19:00:00,93.86
2017-11-03,19:10:00,93.86
2017-11-03,19:20:00,93.86
2017-11-03,19:30:00,93.86
2017-11-03,19:40:00,93.87
2017-11-03,19:50:00,93.86
2017-11-03,20:00:00,93.87
2017-11-03,20:10:00,93.86
2017-11-03,20:20:00,93.86
2017-11-03,20:30:00,93.86
2017-11-03,20:40:00,93.86
2017-11-03,20:50:00,93.86
2017-11-03,21:00:00,93.86
2017-11-03,21:10:00,93.85
2017-11-03,21:20:00,93.85
2017-11-03,21:30:00,93.85
2017-11-03,21:40:00,93.85
2017-11-03,21:50:00,93.86
2017-11-03,22:00:00,93.85
2017-11-03,22:10:00,93.85
2017-11-03,22:20:00,93.85
2017-11-03,22:30:00,93.85
2017-11-03,22:40:00,93.84
2017-11-03,22:50:00,93.85
2017-11-03,23:00:00,93.85
2017-11-03,23:10:00,93.84
2017-11-03,23:20:00,93.84
2017-11-03,23:30:00,93.84
2017-11-03,23:40:00,93.85
2017-11-03,23:50:00,94.01
2017-11-04,00:00:00,93.84
2017-11-04,00:10:00,93.84
2017-11-04,00:20:00,93.84
2017-11-04,00:30:00,93.84
2017-11-04,00:40:00,93.84
2017-11-04,00:50:00,93.84
2017-11-04,01:00:00,93.84
2017-11-04,01:10:00,93.83
2017-11-04,01:20:00,94
2017-11-04,01:30:00,93.83
2017-11-04,01:40:00,93.83
2017-11-04,01:50:00,93.83
2017-11-04,02:00:00,93.84
2017-11-04,02:10:00,93.83
2017-11-04,02:20:00,93.83
2017-11-04,02:30:00,93.83
2017-11-04,02:40:00,93.83
2017-11-04,02:50:00,93.83
2017-11-04,03:00:00,93.83
2017-11-04,03:10:00,93.83
2017-11-04,03:20:00,93.83
2017-11-04,03:30:00,93.83
2017-11-04,03:40:00,93.82
2017-11-04,03:50:00,93.83
2017-11-04,04:00:00,93.83
2017-11-04,04:10:00,93.83
2017-11-04,04:20:00,93.82
2017-11-04,04:30:00,93.82
2017-11-04,04:40:00,93.82
2017-11-04,04:50:00,93.82
2017-11-04,05:00:00,93.82
2017-11-04,05:10:00,93.83
2017-11-04,05:20:00,93.83
2017-11-04,05:30:00,93.83
2017-11-04,05:40:00,93.83
2017-11-04,05:50:00,93.84
2017-11-04,06:00:00,93.83
2017-11-04,06:10:00,93.84
2017-11-04,06:20:00,93.84
2017-11-04,06:30:00,93.84
2017-11-04,06:40:00,93.84
2017-11-04,06:50:00,93.83
2017-11-04,07:00:00,93.83
2017-11-04,07:10:00,93.83
2017-11-04,07:20:00,93.82
2017-11-04,07:30:00,93.82
2017-11-04,07:40:00,93.82
2017-11-04,07:50:00,93.83
2017-11-04,08:00:00,93.84
2017-11-04,08:10:00,93.83
2017-11-04,08:20:00,93.82
2017-11-04,08:30:00,94
2017-11-04,08:40:00,94
2017-11-04,08:50:00,94.74
2017-11-04,09:00:00,94.75
2017-11-04,09:10:00,94.78
2017-11-04,09:20:00,94.67
2017-11-04,09:30:00,94.34
2017-11-04,09:40:00,94.29
2017-11-04,09:50:00,94.28
2017-11-04,10:00:00,94.9
2017-11-04,10:10:00,93.88
2017-11-04,10:20:00,93.88
2017-11-04,10:30:00,93.86
2017-11-04,10:40:00,93.86
2017-11-04,10:50:00,93.86
2017-11-04,11:00:00,93.87
2017-11-04,11:10:00,93.87
2017-11-04,11:20:00,93.86
2017-11-04,11:30:00,93.87
2017-11-04,11:40:00,93.87
2017-11-04,11:50:00,93.87
2017-11-04,12:00:00,93.86
2017-11-04,12:10:00,93.86
2017-11-04,12:20:00,93.86
2017-11-04,12:30:00,93.86
2017-11-04,12:40:00,93.86
2017-11-04,12:50:00,93.86
2017-11-04,13:00:00,93.88
2017-11-04,13:10:00,93.87
2017-11-04,13:20:00,93.87
2017-11-04,13:30:00,93.87
2017-11-04,13:40:00,93.87
2017-11-04,13:50:00,93.87
2017-11-04,14:00:00,93.87
2017-11-04,14:10:00,93.87
2017-11-04,14:20:00,93.86
2017-11-04,14:30:00,93.86
2017-11-04,14:40:00,93.86
2017-11-04,14:50:00,93.87
2017-11-04,15:00:00,93.88
2017-11-04,15:10:00,93.86
2017-11-04,15:20:00,93.86
2017-11-04,15:30:00,93.86
2017-11-04,15:40:00,93.86
2017-11-04,15:50:00,93.86
2017-11-04,16:00:00,93.87
2017-11-04,16:10:00,93.87
2017-11-04,16:20:00,93.86
2017-11-04,16:30:00,93.87
2017-11-04,16:40:00,93.87
2017-11-04,16:50:00,93.86
2017-11-04,17:00:00,93.87
2017-11-04,17:10:00,93.86
2017-11-04,17:20:00,93.87
2017-11-04,17:30:00,93.86
2017-11-04,17:40:00,93.87
2017-11-04,17:50:00,93.87
2017-11-04,18:00:00,93.87
2017-11-04,18:10:00,93.87
2017-11-04,18:20:00,93.87
2017-11-04,18:30:00,93.86
2017-11-04,18:40:00,93.86
2017-11-04,18:50:00,93.86
2017-11-04,19:00:00,93.86
2017-11-04,19:10:00,93.86
2017-11-04,19:20:00,93.86
2017-11-04,19:30:00,93.86
2017-11-04,19:40:00,93.86
2017-11-04,19:50:00,93.86
2017-11-04,20:00:00,93.86
2017-11-04,20:10:00,93.86
2017-11-04,20:20:00,93.86
2017-11-04,20:30:00,93.86
2017-11-04,20:40:00,93.86
2017-11-04,20:50:00,93.86
2017-11-04,21:00:00,93.86
2017-11-04,21:10:00,93.86
2017-11-04,21:20:00,93.86
2017-11-04,21:30:00,93.86
2017-11-04,21:40:00,93.86
2017-11-04,21:50:00,93.86
2017-11-04,22:00:00,93.86
2017-11-04,22:10:00,93.86
2017-11-04,22:20:00,93.86
2017-11-04,22:30:00,93.86
2017-11-04,22:40:00,93.86
2017-11-04,22:50:00,93.86
2017-11-04,23:00:00,93.86
2017-11-04,23:10:00,93.86
2017-11-04,23:20:00,93.86
2017-11-04,23:30:00,93.86
2017-11-04,23:40:00,93.86
2017-11-04,23:50:00,93.86
2017-11-05,00:00:00,93.86
2017-11-05,00:10:00,93.86
2017-11-05,00:20:00,93.86
2017-11-05,00:30:00,93.86
2017-11-05,00:40:00,93.86
2017-11-05,00:50:00,93.86
2017-11-05,01:00:00,93.86
2017-11-05,01:10:00,93.86
2017-11-05,01:20:00,93.86
2017-11-05,01:30:00,93.86
2017-11-05,01:40:00,93.86
2017-11-05,01:50:00,93.86
2017-11-05,02:00:00,93.85
2017-11-05,02:10:00,93.85
2017-11-05,02:20:00,93.85
2017-11-05,02:30:00,93.85
2017-11-05,02:40:00,93.86
2017-11-05,02:50:00,93.86
2017-11-05,03:00:00,93.86
2017-11-05,03:10:00,93.86
2017-11-05,03:20:00,93.86
2017-11-05,03:30:00,93.86
2017-11-05,03:40:00,93.86
2017-11-05,03:50:00,93.86
2017-11-05,04:00:00,93.86
2017-11-05,04:10:00,93.86
2017-11-05,04:20:00,93.86
2017-11-05,04:30:00,93.86
2017-11-05,04:40:00,93.86
2017-11-05,04:50:00,93.86
2017-11-05,05:00:00,93.86
2017-11-05,05:10:00,93.86
2017-11-05,05:20:00,93.86
2017-11-05,05:30:00,93.86
2017-11-05,05:40:00,93.86
2017-11-05,05:50:00,93.86
2017-11-05,06:00:00,93.86
2017-11-05,06:10:00,93.86
2017-11-05,06:20:00,93.86
2017-11-05,06:30:00,93.86
2017-11-05,06:40:00,93.86
2017-11-05,06:50:00,93.86
2017-11-05,07:00:00,93.86
2017-11-05,07:10:00,93.86
2017-11-05,07:20:00,93.86
2017-11-05,07:30:00,93.86
2017-11-05,07:40:00,93.85
2017-11-05,07:50:00,93.86
2017-11-05,08:00:00,93.86
2017-11-05,08:10:00,93.86
2017-11-05,08:20:00,93.86
2017-11-05,08:30:00,93.86
2017-11-05,08:40:00,93.86
2017-11-05,08:50:00,93.86
2017-11-05,09:00:00,93.86
2017-11-05,09:10:00,93.86
2017-11-05,09:20:00,93.85
2017-11-05,09:30:00,93.85
2017-11-05,09:40:00,93.85
2017-11-05,09:50:00,93.85
2017-11-05,10:00:00,93.85
2017-11-05,10:10:00,93.86
2017-11-05,10:20:00,94.97
2017-11-05,10:30:00,94.74
2017-11-05,10:40:00,93.86
2017-11-05,10:50:00,93.86
2017-11-05,11:00:00,93.86
2017-11-05,11:10:00,93.86
2017-11-05,11:20:00,93.86
2017-11-05,11:30:00,93.86
2017-11-05,11:40:00,93.85
2017-11-05,11:50:00,93.86
2017-11-05,12:00:00,94.25
2017-11-05,12:10:00,93.86
2017-11-05,12:20:00,93.87
2017-11-05,12:30:00,93.86
2017-11-05,12:40:00,94.44
2017-11-05,12:50:00,94.44
2017-11-05,13:00:00,93.87
2017-11-05,13:10:00,93.86
2017-11-05,13:20:00,93.86
2017-11-05,13:30:00,94.09
2017-11-05,13:40:00,93.87
2017-11-05,13:50:00,93.87
2017-11-05,14:00:00,93.87
2017-11-05,14:10:00,94.08
2017-11-05,14:20:00,93.88
2017-11-05,14:30:00,93.88
2017-11-05,14:40:00,93.88
2017-11-05,14:50:00,94.47
2017-11-05,15:00:00,94.41
2017-11-05,15:10:00,93.91
2017-11-05,15:20:00,93.89
2017-11-05,15:30:00,93.87
2017-11-05,15:40:00,93.87
2017-11-05,15:50:00,93.87
2017-11-05,16:00:00,94.58
2017-11-05,16:10:00,94.04
2017-11-05,16:20:00,94.5
2017-11-05,16:30:00,94.73
2017-11-05,16:40:00,93.87
2017-11-05,16:50:00,93.88
2017-11-05,17:00:00,93.87
2017-11-05,17:10:00,93.88
2017-11-05,17:20:00,93.88
2017-11-05,17:30:00,93.89
2017-11-05,17:40:00,93.89
2017-11-05,17:50:00,94.75
2017-11-05,18:00:00,93.9
2017-11-05,18:10:00,94.78
2017-11-05,18:20:00,95.23
2017-11-05,18:30:00,94.68
2017-11-05,18:40:00,94.84
2017-11-05,18:50:00,94.79
2017-11-05,19:00:00,93.87
2017-11-05,19:10:00,93.89
2017-11-05,19:20:00,93.91
2017-11-05,19:30:00,93.9
2017-11-05,19:40:00,94.16
2017-11-05,19:50:00,94.16
2017-11-05,20:00:00,94.17
2017-11-05,20:10:00,94.18
2017-11-05,20:20:00,94.16
2017-11-05,20:30:00,94.17
2017-11-05,20:40:00,94.16
2017-11-05,20:50:00,94.16
2017-11-05,21:00:00,94.15
2017-11-05,21:10:00,94.16
2017-11-05,21:20:00,94.14
2017-11-05,21:30:00,94.18
2017-11-05,21:40:00,94.16
2017-11-05,21:50:00,94.16
2017-11-05,22:00:00,94.16
2017-11-05,22:10:00,94.16
2017-11-05,22:20:00,94.16
2017-11-05,22:30:00,95.04
2017-11-05,22:40:00,94.53
2017-11-05,22:50:00,94.53
2017-11-05,23:00:00,94.52
2017-11-05,23:10:00,94.53
2017-11-05,23:20:00,94.53
2017-11-05,23:30:00,94.55
2017-11-05,23:40:00,94.58
2017-11-05,23:50:00,94.58
2017-11-06,00:00:00,94.61
2017-11-06,00:10:00,94.7
2017-11-06,00:20:00,94.63
2017-11-06,00:30:00,94.74
2017-11-06,00:40:00,94.98
2017-11-06,00:50:00,94.99
2017-11-06,01:00:00,94.97
2017-11-06,01:10:00,94.99
2017-11-06,01:20:00,95.25
2017-11-06,01:30:00,95.23
2017-11-06,01:40:00,95.25
2017-11-06,01:50:00,95.25
2017-11-06,02:00:00,94.41
2017-11-06,02:10:00,94.39
2017-11-06,02:20:00,94.4
2017-11-06,02:30:00,94.39
2017-11-06,02:40:00,94.37
2017-11-06,02:50:00,95
2017-11-06,03:00:00,94.4
2017-11-06,03:10:00,94.38
2017-11-06,03:20:00,94.38
2017-11-06,03:30:00,94.38
2017-11-06,03:40:00,94.37
2017-11-06,03:50:00,94.37
2017-11-06,04:00:00,94.38
2017-11-06,04:10:00,94.38
2017-11-06,04:20:00,94.36
2017-11-06,04:30:00,94.33
2017-11-06,04:40:00,94.32
2017-11-06,04:50:00,94.32
2017-11-06,05:00:00,94.55
2017-11-06,05:10:00,94.8
2017-11-06,05:20:00,94.31
2017-11-06,05:30:00,94.25
2017-11-06,05:40:00,94.64
2017-11-06,05:50:00,94.84
2017-11-06,06:00:00,93.87
2017-11-06,06:10:00,94.24
2017-11-06,06:20:00,94.25
2017-11-06,06:30:00,93.89
2017-11-06,06:40:00,94.84
2017-11-06,06:50:00,94.76
2017-11-06,07:00:00,94.54
2017-11-06,07:10:00,93.92
2017-11-06,07:20:00,93.92
2017-11-06,07:30:00,93.91
2017-11-06,07:40:00,93.92
2017-11-06,07:50:00,93.92
2017-11-06,08:00:00,93.91
2017-11-06,08:10:00,93.91
2017-11-06,08:20:00,93.92
2017-11-06,08:30:00,94.57
2017-11-06,08:40:00,95
2017-11-06,08:50:00,94.96
2017-11-06,09:00:00,94.99
2017-11-06,09:10:00,95.21
2017-11-06,09:20:00,95.15
2017-11-06,09:30:00,95.01
2017-11-06,09:40:00,95.12
2017-11-06,09:50:00,95.12
2017-11-06,10:00:00,95.12
2017-11-06,10:10:00,95.1
2017-11-06,10:20:00,94.71
2017-11-06,10:30:00,94.71
2017-11-06,10:40:00,94.7
2017-11-06,10:50:00,94.71
2017-11-06,11:00:00,94.71
2017-11-06,11:10:00,94.75
2017-11-06,11:20:00,94.74
2017-11-06,11:30:00,94.89
2017-11-06,11:40:00,95.13
2017-11-06,11:50:00,94.66
2017-11-06,12:00:00,94.63
2017-11-06,12:10:00,94.64
2017-11-06,12:20:00,94.63
2017-11-06,12:30:00,94.9
2017-11-06,12:40:00,94.67
2017-11-06,12:50:00,95.29
2017-11-06,13:00:00,95.11
2017-11-06,13:10:00,95.27
2017-11-06,13:20:00,95.26
2017-11-06,13:30:00,95.26
2017-11-06,13:40:00,95.26
2017-11-06,13:50:00,95.26
2017-11-06,14:00:00,95.26
2017-11-06,14:10:00,95.13
2017-11-06,14:20:00,95.14
2017-11-06,14:30:00,95.11
2017-11-06,14:40:00,95.14
2017-11-06,14:50:00,94.32
2017-11-06,15:00:00,94.32
2017-11-06,15:10:00,94.32
2017-11-06,15:20:00,94.35
2017-11-06,15:30:00,94.35
2017-11-06,15:40:00,94.35
2017-11-06,15:50:00,94.34
2017-11-06,16:00:00,94.34
2017-11-06,16:10:00,94.7
2017-11-06,16:20:00,94.34
2017-11-06,16:30:00,94.35
2017-11-06,16:40:00,94.35
2017-11-06,16:50:00,94.37
2017-11-06,17:00:00,94.36
2017-11-06,17:10:00,94.37
2017-11-06,17:20:00,94.39
2017-11-06,17:30:00,94.37
2017-11-06,17:40:00,94.36
2017-11-06,17:50:00,94.38
2017-11-06,18:00:00,94.37
2017-11-06,18:10:00,94.39
2017-11-06,18:20:00,94.41
2017-11-06,18:30:00,94.4
2017-11-06,18:40:00,94.41
2017-11-06,18:50:00,94.38
2017-11-06,19:00:00,94.4
2017-11-06,19:10:00,94.39
2017-11-06,19:20:00,94.37
2017-11-06,19:30:00,94.36
2017-11-06,19:40:00,94.38
2017-11-06,19:50:00,94.36
2017-11-06,20:00:00,94.36
2017-11-06,20:10:00,94.36
2017-11-06,20:20:00,94.34
2017-11-06,20:30:00,94.34
2017-11-06,20:40:00,94.34
2017-11-06,20:50:00,94.36
2017-11-06,21:00:00,94.34
2017-11-06,21:10:00,94.33
2017-11-06,21:20:00,94.35
2017-11-06,21:30:00,94.33
2017-11-06,21:40:00,94.32
2017-11-06,21:50:00,93.93
2017-11-06,22:00:00,94.32
2017-11-06,22:10:00,94.32
2017-11-06,22:20:00,94.31
2017-11-06,22:30:00,94.31
2017-11-06,22:40:00,94.31
2017-11-06,22:50:00,94.32
2017-11-06,23:00:00,94.33
2017-11-06,23:10:00,94.33
2017-11-06,23:20:00,94.34
2017-11-06,23:30:00,94.33
2017-11-06,23:40:00,93.94
2017-11-06,23:50:00,94.33
2017-11-07,00:00:00,94.34
2017-11-07,00:10:00,94.33
2017-11-07,00:20:00,94.33
2017-11-07,00:30:00,94.32
2017-11-07,00:40:00,93.95
2017-11-07,00:50:00,93.94
2017-11-07,01:00:00,93.94
2017-11-07,01:10:00,93.94
2017-11-07,01:20:00,94.33
2017-11-07,01:30:00,94.33
2017-11-07,01:40:00,94.32
2017-11-07,01:50:00,94.81
2017-11-07,02:00:00,94.34
2017-11-07,02:10:00,94.8
2017-11-07,02:20:00,94.34
2017-11-07,02:30:00,94.34
2017-11-07,02:40:00,94.34
2017-11-07,02:50:00,94.57
2017-11-07,03:00:00,94.33
2017-11-07,03:10:00,94.78
2017-11-07,03:20:00,94.78
2017-11-07,03:30:00,94.78
2017-11-07,03:40:00,94.77
2017-11-07,03:50:00,94.78
2017-11-07,04:00:00,94.78
2017-11-07,04:10:00,94.77
2017-11-07,04:20:00,94.78
2017-11-07,04:30:00,94.77
2017-11-07,04:40:00,94.78
2017-11-07,04:50:00,94.77
2017-11-07,05:00:00,94.79
2017-11-07,05:10:00,94.77
2017-11-07,05:20:00,94.78
2017-11-07,05:30:00,94.78
2017-11-07,05:40:00,94.78
2017-11-07,05:50:00,94.78
2017-11-07,06:00:00,94.8
2017-11-07,06:10:00,94.78
2017-11-07,06:20:00,94.77
2017-11-07,06:30:00,94.76
2017-11-07,06:40:00,94.76
2017-11-07,06:50:00,94.76
2017-11-07,07:00:00,94.79
2017-11-07,07:10:00,94.77
2017-11-07,07:20:00,94.76
2017-11-07,07:30:00,94.3
2017-11-07,07:40:00,93.97
2017-11-07,07:50:00,94.3
2017-11-07,08:00:00,94.3
2017-11-07,08:10:00,93.96
2017-11-07,08:20:00,93.96
2017-11-07,08:30:00,93.97
2017-11-07,08:40:00,93.96
2017-11-07,08:50:00,93.94
2017-11-07,09:00:00,93.96
2017-11-07,09:10:00,93.95
2017-11-07,09:20:00,93.96
2017-11-07,09:30:00,93.95
2017-11-07,09:40:00,93.99